Regional Weather Roundup
Issued by NWS

Home | Current Version | Previous Version | Graphics & Text | Print | Product List | Glossary On
Versions: 1 2 3 4 5 6 7 8 9 10 11 12 13 14 15 16 17 18 19 20 21 22 23 24 25 26 27 28 29 30 31 32 33 34 35 36 37 38 39 40 41 42 43 44 45 46 47 48 49 50
417
ASUS45 KCYS 170210
RWRWY

WYOMING REGIONAL WEATHER ROUNDUP
NATIONAL WEATHER SERVICE CHEYENNE WY
700 PM MST MON JAN 16 2017

NOTE:  "FAIR" INDICATES FEW OR NO CLOUDS BELOW 12,000 FEET
WITH NO SIGNIFICANT WEATHER AND/OR OBSTRUCTIONS TO VISIBILITY.

WYZ001-170300-
YELLOWSTONE NATIONAL PARK

CITY           SKY/WX    TMP DP  RH WIND       PRES   REMARKS
LK YELLOWSTONE   N/A     -3  -7  82 CALM      30.17S
W YELLOWSTONE  NOT AVBL

$$
WYZ002>013-054>058-071-098>099-170300-
NORTHERN WYOMING

CITY           SKY/WX    TMP DP  RH WIND       PRES   REMARKS
JACKSON        CLEAR     -6  -8  92 CALM      30.22R
CODY           FAIR       9   3  77 S6        30.07F WCI  -1
GREYBULL       FAIR      -8 -12  83 NW6       30.16S WCI -21
WORLAND        FAIR      -2  -5  87 S3        30.12F
SHERIDAN       FAIR      15   5  64 S13       30.07F WCI   1
BUFFALO        FAIR      26   7  44 SW6       30.07F WCI  19
GILLETTE       FAIR      20   9  62 W6        30.08F WCI  12
HULETT         FAIR      23  10  58 S14       30.09F WCI  11
NEWCASTLE      FAIR      23  12  63 N13       30.10F WCI  11

$$
WYZ014>020-022>026-101>103-170300-
CENTRAL WYOMING

CITY           SKY/WX    TMP DP  RH WIND       PRES   REMARKS
BIG PINEY      FAIR      -5  -8  87 CALM      30.16S
PINEDALE       FAIR      -8 -11  84 CALM      30.16S
DUBOIS         NOT AVBL
LANDER         FAIR       8   2  76 CALM      30.12S
RIVERTON       FAIR       1  -3  83 NW7       30.13S WCI -12
CASPER         FAIR      19  10  68 SW9       30.10F WCI   8
DOUGLAS        FAIR      24  12  60 NW3       30.12S

$$
WYZ021-027>030-104>119-170300-
SOUTHERN WYOMING

CITY           SKY/WX    TMP DP  RH WIND       PRES   REMARKS
EVANSTON       FAIR       6   0  76 E6        30.17S WCI  -4
ROCK SPRINGS   FAIR      -1  -5  82 SW3       30.17S
RAWLINS        FAIR       3  -3  76 N3        30.14R
LARAMIE        FAIR      11   7  84 CALM      30.10R
CHEYENNE       FAIR      26  14  60 NW5       30.09R WCI  20
TORRINGTON     FAIR      30  14  51 NW6       30.10R WCI  24

$$




USA.gov is the U.S. government's official web portal to all federal, state and local government web resources and services.